Location: Prairie State College
(41.5244°N, 87.6382°W)
Time: 22:11:55
(UTC-06:00)

ISS - All Passes

Search period start: 27 January 2015 00:00
Search period end: 06 February 2015 00:00
Orbit: 402 x 410 km, 51.6° (Epoch: 27 January)

Date Brightness Start Highest point End Pass type
(mag) Time Alt. Az. Time Alt. Az. Time Alt. Az.
27 Jan - 01:19:58 10° NW 01:22:00 15° N 01:24:01 10° NNE night (unlit)
27 Jan - 02:57:07 10° NNW 02:59:28 18° NNE 03:01:50 10° ENE night (unlit)
27 Jan - 04:33:13 10° NW 04:36:30 61° NNE 04:39:47 10° ESE visible
27 Jan - 06:10:36 10° W 06:12:44 16° SW 06:14:46 10° S visible
27 Jan - 21:14:29 10° S 21:16:38 17° SE 21:18:51 10° E night (unlit)
27 Jan - 22:49:38 10° WSW 22:52:52 57° NNW 22:56:08 10° NE night (unlit)
28 Jan - 00:27:37 10° WNW 00:29:56 17° NNW 00:32:13 10° NNE night (unlit)
28 Jan - 02:05:21 10° NNW 02:07:23 15° N 02:09:27 10° NE night (unlit)
28 Jan - 03:41:31 10° NW 03:44:37 36° NNE 03:47:44 10° E visible
28 Jan - 05:18:09 10° WNW 05:21:04 29° SW 05:23:58 10° SSE visible
28 Jan - 21:57:46 10° SW 22:01:02 78° SE 22:04:20 10° ENE night (unlit)
28 Jan - 23:35:13 10° WNW 23:37:52 22° NNW 23:40:30 10° NE night (unlit)
29 Jan - 01:13:23 10° NNW 01:15:16 14° N 01:17:10 10° NE night (unlit)
29 Jan - 02:49:49 10° NW 02:52:38 25° NNE 02:55:28 10° E night (unlit)
29 Jan - 04:26:05 10° WNW 04:29:20 55° SW 04:32:35 10° SE visible
29 Jan - 21:06:10 10° SSW 21:09:15 40° SE 21:12:21 10° ENE night (unlit)
29 Jan - 22:42:53 10° W 22:45:50 29° NNW 22:48:47 10° NE night (unlit)
30 Jan - 00:21:11 10° NW 00:23:08 15° N 00:25:04 10° NNE night (unlit)
30 Jan - 01:58:06 10° NNW 02:00:35 19° NNE 02:03:04 10° ENE night (unlit)
30 Jan - 03:34:12 10° NW 03:37:31 78° NE 03:40:49 10° ESE night (unlit)
30 Jan - 05:12:11 10° WSW 05:13:39 12° SW 05:14:59 10° SSW visible
30 Jan - 20:14:58 10° S 20:17:30 21° SE 20:20:05 10° E night (unlit)
30 Jan - 21:50:40 10° WSW 21:53:50 46° NNW 21:57:02 10° NE night (unlit)
30 Jan - 23:28:47 10° NW 23:30:58 16° N 23:33:08 10° NNE night (unlit)
31 Jan - 01:06:18 10° NNW 01:08:26 16° N 01:10:36 10° NE night (unlit)
31 Jan - 02:42:24 10° NW 02:45:35 44° NNE 02:48:46 10° ESE night (unlit)
31 Jan - 04:19:16 10° W 04:21:56 22° SW 04:24:34 10° S night (unlit)
31 Jan - 19:24:44 10° SSE 19:25:48 11° SE 19:26:58 10° ESE night (unlit)
31 Jan - 20:58:37 10° WSW 21:01:54 82° NW 21:05:12 10° NE night (unlit)
31 Jan - 22:36:19 10° WNW 22:38:49 19° NNW 22:41:18 10° NNE night (unlit)
01 Feb - 00:14:20 10° NNW 00:16:15 14° N 00:18:11 10° NE night (unlit)
01 Feb - 01:50:37 10° NW 01:53:33 29° NNE 01:56:30 10° E night (unlit)
01 Feb - 03:27:00 10° WNW 03:30:10 42° SW 03:33:17 10° SSE night (unlit)
01 Feb - 20:06:50 10° SW 20:10:01 52° SE 20:13:14 10° ENE night (unlit)
01 Feb - 21:43:52 10° W 21:46:41 26° NNW 21:49:31 10° NE night (unlit)
01 Feb - 23:22:09 10° NW 23:24:02 14° N 23:25:55 10° NNE night (unlit)
02 Feb - 00:58:51 10° NW 01:01:26 21° NNE 01:04:04 10° ENE night (unlit)
02 Feb - 02:34:58 10° NW 02:38:17 83° SW 02:41:35 10° SE night (unlit)
02 Feb - 19:15:23 10° SSW 19:18:10 27° SE 19:21:01 10° ENE visible
02 Feb - 20:51:30 10° W 20:54:35 38° NNW 20:57:42 10° NE night (unlit)
02 Feb - 22:29:45 10° NW 22:31:47 15° N 22:33:50 10° NNE night (unlit)
03 Feb - 00:07:00 10° NNW 00:09:15 17° NNE 00:11:32 10° NE night (unlit)
03 Feb - 01:43:03 10° NW 01:46:19 54° NNE 01:49:33 10° ESE night (unlit)
03 Feb - 03:20:14 10° W 03:22:35 18° SW 03:24:51 10° S night (unlit)
03 Feb - 18:24:32 10° SSE 18:26:22 15° SE 18:28:19 10° E visible
03 Feb - 19:59:18 10° WSW 20:02:33 64° NNW 20:05:50 10° NE visible
03 Feb - 21:37:12 10° WNW 21:39:33 18° NNW 21:41:54 10° NNE night (unlit)
03 Feb - 23:15:02 10° NNW 23:17:00 15° N 23:18:59 10° NE night (unlit)
04 Feb - 00:51:12 10° NW 00:54:14 33° NNE 00:57:17 10° E night (unlit)
04 Feb - 02:27:43 10° WNW 02:30:44 33° SW 02:33:44 10° SSE night (unlit)
04 Feb - 19:07:19 10° SW 19:10:34 68° SE 19:13:50 10° ENE visible
04 Feb - 20:44:38 10° WNW 20:47:19 23° NNW 20:50:01 10° NE night (unlit)
04 Feb - 22:22:51 10° NW 22:24:43 14° N 22:26:34 10° NE night (unlit)
04 Feb - 23:59:20 10° NW 00:02:04 23° NNE 00:04:49 10° ENE night (unlit)
05 Feb - 01:35:33 10° WNW 01:38:49 64° SW 01:42:05 10° SE night (unlit)
05 Feb - 18:15:39 10° SSW 18:18:38 34° SE 18:21:40 10° ENE visible
05 Feb - 19:52:09 10° W 19:55:08 32° NNW 19:58:09 10° NE visible
05 Feb - 21:30:26 10° NW 21:32:23 15° N 21:34:21 10° NNE night (unlit)
05 Feb - 23:07:27 10° NNW 23:09:50 18° NNE 23:12:14 10° ENE night (unlit)
